Back to catalog

STARLINK-5203

AliveCommunicationsVLEO
NORAD 54104·PAYLOAD·🇺🇸 United States

Launched Oct 20, 2022 from Cape Canaveral Space Force Station

Loading…

Next Passes (next 24 hours)

TLE

FreshSource: CelesTrak SupGP

Epoch: Sep 14, 2026, 14:32 UTC

1 54104C 22136BF  26257.60604167  .00042461  00000+0  13656-2 0  2576
2 54104  53.1577 157.5420 0001514  92.5211  85.6612 15.31676044    15

Track STARLINK-5203 in real time with AllMySat

Download on the App Store